Location: Bottom School (historical)
(37.9078°N, 89.3593°W)
Time: 21:26:43
(UTC+00:00)

AO-91 - Visible Passes

Search period start: 31 March 2023 00:00
Search period end: 10 April 2023 00:00
Orbit: 448 x 779 km, 97.6° (Epoch: 30 March)

Date Brightness Start Highest point End Pass type
(mag) Time Alt. Az. Time Alt. Az. Time Alt. Az.
03 Apr ? 04:12:27 10° NNE 04:12:30 10° NNE 04:12:30 10° NNE visible
04 Apr ? 04:27:46 10° N 04:28:05 12° N 04:28:05 12° N visible
05 Apr ? 04:43:09 10° N 04:43:39 13° N 04:43:39 13° N visible
06 Apr ? 04:58:37 10° N 04:59:11 13° N 04:59:11 13° N visible
07 Apr ? 05:14:11 10° NNW 05:14:40 12° NNW 05:14:40 12° NNW visible
08 Apr ? 03:52:43 10° NNE 03:53:07 12° NNE 03:53:07 12° NNE visible
08 Apr ? 05:29:57 10° NNW 05:30:09 11° NNW 05:30:09 11° NNW visible
09 Apr ? 04:07:47 10° NNE 04:08:33 14° NNE 04:08:33 14° NNE visible
